,,,PA_Meas_PMT16A,,PR_Meas_QMR101_102,,RH_Meas_QMH101,,SR_Meas_QMS101,,TA_Meas_QMH101,,GenWind,,GenWind,
date,time,status,PA,status,PR,status,RH,status,SR,status,TA,status,DirAvg,status,SpdAvg,
2011-05-26, 00:00:04,VALID,1003.5,VALID,0,INVALID,163.701,VALID,0,VALID,24.675,VALID,71,VALID,0.147656,
2011-05-26, 00:01:04,VALID,1003.5,VALID,0,INVALID,163.685,VALID,0,VALID,24.675,VALID,45,VALID,0.05625,
2011-05-26, 00:02:04,VALID,1003.46,VALID,0,INVALID,163.685,VALID,0,VALID,24.675,VALID,45,VALID,0,
2011-05-26, 00:03:04,VALID,1003.46,VALID,0,INVALID,163.693,VALID,0,VALID,24.675,VALID,45,VALID,0.214844,
2011-05-26, 00:04:04,VALID,1003.45,VALID,0,INVALID,163.701,VALID,0,VALID,24.6537,VALID,45,VALID,0.0445312,
2011-05-26, 00:05:04,VALID,1003.44,VALID,0,INVALID,163.701,VALID,0,VALID,24.675,VALID,45,VALID,0.386328,
2011-05-26, 00:06:04,VALID,1003.42,VALID,0,INVALID,163.716,VALID,0,VALID,24.6537,VALID,45,VALID,0.246484,
2011-05-26, 00:07:04,VALID,1003.43,VALID,0,INVALID,163.685,VALID,0,VALID,24.675,VALID,45,VALID,0.171875,
2011-05-26, 00:08:04,VALID,1003.4,VALID,0,INVALID,163.723,VALID,0,VALID,24.675,VALID,45,VALID,0.215234,
2011-05-26, 00:09:04,VALID,1003.4,VALID,0,INVALID,163.693,VALID,0,VALID,24.6945,VALID,54,VALID,0.598047,
2011-05-26, 00:10:04,VALID,1003.4,VALID,0,INVALID,163.678,VALID,0,VALID,24.7529,VALID,59,VALID,0.317578,
2011-05-26, 00:11:04,VALID,1003.44,VALID,0,INVALID,163.662,VALID,0,VALID,24.7743,VALID,59,VALID,0.18125,
2011-05-26, 00:12:04,VALID,1003.41,VALID,0,INVALID,163.701,VALID,0,VALID,24.7529,VALID,59,VALID,0.280859,
2011-05-26, 00:13:04,VALID,1003.39,VALID,0,INVALID,163.701,VALID,0,VALID,24.7316,VALID,59,VALID,0.199609,
2011-05-26, 00:14:04,VALID,1003.36,VALID,0,INVALID,163.678,VALID,0,VALID,24.7548,VALID,59,VALID,0.224219,
2011-05-26, 00:15:04,VALID,1003.38,VALID,0,INVALID,163.701,VALID,0,VALID,24.714,VALID,59,VALID,0.194531,
2011-05-26, 00:16:04,VALID,1003.4,VALID,0,INVALID,163.662,VALID,0,VALID,24.7121,VALID,59,VALID,0.0464844,
2011-05-26, 00:17:04,VALID,1003.37,VALID,0,INVALID,163.685,VALID,0,VALID,24.7353,VALID,59,VALID,0.0367187,
2011-05-26, 00:18:04,VALID,1003.34,VALID,0,INVALID,163.693,VALID,0,VALID,24.7159,VALID,59,VALID,0.11875,
2011-05-26, 00:19:04,VALID,1003.32,VALID,0,INVALID,163.678,VALID,0,VALID,24.6945,VALID,59,VALID,0.0976563,
2011-05-26, 00:20:04,VALID,1003.31,VALID,0,INVALID,163.693,VALID,0,VALID,24.6945,VALID,59,VALID,0,
2011-05-26, 00:21:04,VALID,1003.31,VALID,0,INVALID,163.67,VALID,0,VALID,24.6945,VALID,59,VALID,0,
2011-05-26, 00:22:04,VALID,1003.32,VALID,0,INVALID,163.685,VALID,0,VALID,24.675,VALID,59,VALID,0.122656,
2011-05-26, 00:23:04,VALID,1003.32,VALID,0,INVALID,163.693,VALID,0,VALID,24.6537,VALID,75,VALID,0.2875,
2011-05-26, 00:24:04,VALID,1003.3,VALID,0,INVALID,163.685,VALID,0,VALID,24.675,VALID,75,VALID,0.135156,
2011-05-26, 00:25:04,VALID,1003.26,VALID,0,INVALID,163.693,VALID,0,VALID,24.6556,VALID,75,VALID,0.283594,
2011-05-26, 00:26:04,VALID,1003.25,VALID,0,INVALID,163.67,VALID,0,VALID,24.6945,VALID,75,VALID,0.227344,
2011-05-26, 00:27:04,VALID,1003.27,VALID,0,INVALID,163.693,VALID,0,VALID,24.6964,VALID,75,VALID,0.393359,
2011-05-26, 00:28:04,VALID,1003.28,VALID,0,INVALID,163.685,VALID,0,VALID,24.6945,VALID,75,VALID,0.119531,
2011-05-26, 00:29:04,VALID,1003.27,VALID,0,INVALID,163.723,VALID,0,VALID,24.6945,VALID,75,VALID,0.360156,
2011-05-26, 00:30:04,VALID,1003.26,VALID,0,INVALID,163.693,VALID,0,VALID,24.6945,VALID,75,VALID,0.280078,
2011-05-26, 00:31:04,VALID,1003.25,VALID,0,INVALID,163.708,VALID,0,VALID,24.6945,VALID,75,VALID,0.292578,
2011-05-26, 00:32:04,VALID,1003.23,VALID,0,INVALID,163.678,VALID,0,VALID,24.6926,VALID,76,VALID,0.355469,
2011-05-26, 00:33:04,VALID,1003.22,VALID,0,INVALID,163.678,VALID,0.100563,VALID,24.7335,VALID,70,VALID,0.337891,
2011-05-26, 00:34:04,VALID,1003.22,VALID,0,INVALID,163.685,VALID,0,VALID,24.7316,VALID,72,VALID,0.217578,
2011-05-26, 00:35:04,VALID,1003.22,VALID,0,INVALID,163.662,VALID,0,VALID,24.751,VALID,72,VALID,0.0546875,
2011-05-26, 00:36:04,VALID,1003.22,VALID,0,INVALID,163.67,VALID,0,VALID,24.7743,VALID,72,VALID,0,
2011-05-26, 00:37:04,VALID,1003.19,VALID,0,INVALID,163.655,VALID,0,VALID,24.7529,VALID,72,VALID,0.110937,
2011-05-26, 00:38:04,VALID,1003.19,VALID,0,INVALID,163.685,VALID,0,VALID,24.7316,VALID,72,VALID,0.0117188,
2011-05-26, 00:39:04,VALID,1003.13,VALID,0,INVALID,163.723,VALID,0.100563,VALID,24.7724,VALID,72,VALID,0,
2011-05-26, 00:40:04,VALID,1003.13,VALID,0,INVALID,163.701,VALID,0,VALID,24.7743,VALID,72,VALID,0,
2011-05-26, 00:41:04,VALID,1003.12,VALID,0,INVALID,163.67,VALID,0,VALID,24.7529,VALID,72,VALID,0,
2011-05-26, 00:42:04,VALID,1003.08,VALID,0,INVALID,163.693,VALID,0.100563,VALID,24.7529,VALID,72,VALID,0,
2011-05-26, 00:43:04,VALID,1003.05,VALID,0,INVALID,163.693,VALID,0,VALID,24.7529,VALID,72,VALID,0,
2011-05-26, 00:44:04,VALID,1003.05,VALID,0,INVALID,163.685,VALID,0.100563,VALID,24.7743,VALID,72,VALID,0,
2011-05-26, 00:45:04,VALID,1003.01,VALID,0,INVALID,163.678,VALID,0,VALID,24.7529,VALID,72,VALID,0,
2011-05-26, 00:46:04,VALID,1003,VALID,0,INVALID,163.67,VALID,0,VALID,24.7335,VALID,72,VALID,0,
2011-05-26, 00:47:04,VALID,1003,VALID,0,INVALID,163.655,VALID,0,VALID,24.7335,VALID,72,VALID,0,
2011-05-26, 00:48:04,VALID,1002.99,VALID,0,INVALID,163.67,VALID,0,VALID,24.7529,VALID,72,VALID,0,
2011-05-26, 00:49:04,VALID,1002.97,VALID,0,INVALID,163.67,VALID,0.100563,VALID,24.7316,VALID,72,VALID,0,
2011-05-26, 00:50:04,VALID,1002.95,VALID,0,INVALID,163.701,VALID,0.100563,VALID,24.7335,VALID,72,VALID,0,
2011-05-26, 00:51:04,VALID,1002.95,VALID,0,INVALID,163.708,VALID,0,VALID,24.7529,VALID,72,VALID,0,
2011-05-26, 00:52:04,VALID,1002.95,VALID,0,INVALID,163.685,VALID,0,VALID,24.7743,VALID,72,VALID,0,
2011-05-26, 00:53:04,VALID,1002.91,VALID,0,INVALID,163.685,VALID,0,VALID,24.7548,VALID,72,VALID,0,
2011-05-26, 00:54:04,VALID,1002.92,VALID,0,INVALID,163.678,VALID,0,VALID,24.7529,VALID,72,VALID,0,
2011-05-26, 00:55:04,VALID,1002.89,VALID,0,INVALID,163.685,VALID,0.100563,VALID,24.7529,VALID,72,VALID,0,
2011-05-26, 00:56:04,VALID,1002.87,VALID,0,INVALID,163.685,VALID,0,VALID,24.7529,VALID,72,VALID,0,
2011-05-26, 00:57:04,VALID,1002.82,VALID,0,INVALID,163.67,VALID,0,VALID,24.7529,VALID,76,VALID,0.255859,
2011-05-26, 00:58:04,VALID,1002.79,VALID,0,INVALID,163.708,VALID,0,VALID,24.7529,VALID,76,VALID,0.00117188,
2011-05-26, 00:59:04,VALID,1002.79,VALID,0,INVALID,163.678,VALID,0,VALID,24.7724,VALID,76,VALID,0,
2011-05-26, 01:00:04,VALID,1002.78,VALID,0,INVALID,163.701,VALID,0,VALID,24.7529,VALID,76,VALID,0.261719,
2011-05-26, 01:01:04,VALID,1002.73,VALID,0,INVALID,163.678,VALID,0,VALID,24.7743,VALID,76,VALID,0.0140625,
2011-05-26, 01:02:04,VALID,1002.73,VALID,0,INVALID,163.655,VALID,0,VALID,24.7937,VALID,76,VALID,0.234766,
2011-05-26, 01:03:04,VALID,1002.72,VALID,0,INVALID,163.685,VALID,0.100563,VALID,24.7724,VALID,76,VALID,0.00195313,
2011-05-26, 01:04:04,VALID,1002.7,VALID,0,INVALID,163.708,VALID,0,VALID,24.7529,VALID,76,VALID,0.117188,
2011-05-26, 01:05:04,VALID,1002.69,VALID,0,INVALID,163.678,VALID,0,VALID,24.7724,VALID,76,VALID,0.00273437,
2011-05-26, 01:06:04,VALID,1002.67,VALID,0,INVALID,163.685,VALID,0,VALID,24.7724,VALID,76,VALID,0,
2011-05-26, 01:07:04,VALID,1002.66,VALID,0,INVALID,163.67,VALID,0,VALID,24.7724,VALID,76,VALID,0.0617188,
2011-05-26, 01:08:04,VALID,1002.65,VALID,0,INVALID,163.678,VALID,0,VALID,24.7705,VALID,77,VALID,0.0917969,
2011-05-26, 01:09:04,VALID,1002.65,VALID,0,INVALID,163.685,VALID,0,VALID,24.8132,VALID,77,VALID,0.0410156,
2011-05-26, 01:10:04,VALID,1002.64,VALID,0,INVALID,163.678,VALID,0,VALID,24.7724,VALID,77,VALID,0.0464844,
2011-05-26, 01:11:04,VALID,1002.67,VALID,0,INVALID,163.685,VALID,0,VALID,24.7919,VALID,77,VALID,0.01875,
2011-05-26, 01:12:04,VALID,1002.59,VALID,0,INVALID,163.693,VALID,0,VALID,24.8113,VALID,77,VALID,0,
2011-05-26, 01:13:04,VALID,1002.62,VALID,0,INVALID,163.708,VALID,0,VALID,24.79,VALID,77,VALID,0.310937,
2011-05-26, 01:14:04,VALID,1002.62,VALID,0,INVALID,163.685,VALID,0,VALID,24.8308,VALID,77,VALID,0.0582031,
2011-05-26, 01:15:04,VALID,1002.6,VALID,0,INVALID,163.678,VALID,0,VALID,24.8308,VALID,77,VALID,0.0289063,
2011-05-26, 01:16:04,VALID,1002.62,VALID,0,INVALID,163.708,VALID,0,VALID,24.8308,VALID,77,VALID,0,
2011-05-26, 01:17:04,VALID,1002.59,VALID,0,INVALID,163.67,VALID,0,VALID,24.8308,VALID,77,VALID,0.00585938,
2011-05-26, 01:18:04,VALID,1002.62,VALID,0,INVALID,163.662,VALID,0,VALID,24.8503,VALID,77,VALID,0.1375,
2011-05-26, 01:19:04,VALID,1002.6,VALID,0,INVALID,163.678,VALID,0.100563,VALID,24.8697,VALID,77,VALID,0,
2011-05-26, 01:20:04,VALID,1002.62,VALID,0,INVALID,163.685,VALID,0,VALID,24.8892,VALID,77,VALID,0.214453,
2011-05-26, 01:21:04,VALID,1002.6,VALID,0,INVALID,163.67,VALID,0,VALID,24.8892,VALID,77,VALID,0,
2011-05-26, 01:22:04,VALID,1002.59,VALID,0,INVALID,163.685,VALID,0,VALID,24.9087,VALID,77,VALID,0.184375,
2011-05-26, 01:23:04,VALID,1002.59,VALID,0,INVALID,163.678,VALID,0,VALID,24.9282,VALID,81,VALID,0.373828,
2011-05-26, 01:24:04,VALID,1002.58,VALID,0,INVALID,163.662,VALID,0,VALID,24.9476,VALID,83,VALID,0.163672,
2011-05-26, 01:25:04,VALID,1002.55,VALID,0,INVALID,163.67,VALID,0,VALID,24.9866,VALID,83,VALID,0.646484,
2011-05-26, 01:26:04,VALID,1002.54,VALID,0,INVALID,163.701,VALID,0.100563,VALID,25.006,VALID,83,VALID,0.266016,
2011-05-26, 01:27:04,VALID,1002.56,VALID,0,INVALID,163.655,VALID,0,VALID,25.0255,VALID,104,VALID,0.457031,
2011-05-26, 01:28:04,VALID,1002.53,VALID,0,INVALID,163.67,VALID,0,VALID,25.045,VALID,103,VALID,0.297266,
2011-05-26, 01:29:04,VALID,1002.54,VALID,0,INVALID,163.647,VALID,0,VALID,25.0858,VALID,97,VALID,0.365234,
2011-05-26, 01:30:04,VALID,1002.51,VALID,0,INVALID,163.67,VALID,0,VALID,25.1034,VALID,87,VALID,0.238672,
2011-05-26, 01:31:04,VALID,1002.5,VALID,0,INVALID,163.678,VALID,0,VALID,25.1248,VALID,87,VALID,0.123828,
2011-05-26, 01:32:04,VALID,1002.48,VALID,0,INVALID,163.67,VALID,0,VALID,25.1034,VALID,87,VALID,0.155859,
2011-05-26, 01:33:04,VALID,1002.46,VALID,0,INVALID,163.647,VALID,0,VALID,25.1442,VALID,87,VALID,0.0652344,
2011-05-26, 01:34:04,VALID,1002.45,VALID,0,INVALID,163.67,VALID,0,VALID,25.1442,VALID,87,VALID,0.157813,
2011-05-26, 01:35:04,VALID,1002.46,VALID,0,INVALID,163.67,VALID,0,VALID,25.1229,VALID,87,VALID,0.114453,
2011-05-26, 01:36:04,VALID,1002.43,VALID,0,INVALID,163.662,VALID,0,VALID,25.1637,VALID,87,VALID,0.259375,
2011-05-26, 01:37:04,VALID,1002.44,VALID,0,INVALID,163.639,VALID,0,VALID,25.1442,VALID,68,VALID,0.447656,
2011-05-26, 01:38:04,VALID,1002.43,VALID,0,INVALID,163.662,VALID,0,VALID,25.1461,VALID,56,VALID,0.289844,
2011-05-26, 01:39:04,VALID,1002.42,VALID,0,INVALID,163.655,VALID,0,VALID,25.0839,VALID,56,VALID,0.248828,
2011-05-26, 01:40:04,VALID,1002.43,VALID,0,INVALID,163.678,VALID,0,VALID,25.045,VALID,56,VALID,0.127344,
2011-05-26, 01:41:04,VALID,1002.45,VALID,0,INVALID,163.639,VALID,0,VALID,25.0663,VALID,56,VALID,0.419531,
2011-05-26, 01:42:04,VALID,1002.41,VALID,0,INVALID,163.655,VALID,0,VALID,25.0663,VALID,56,VALID,0.166406,
2011-05-26, 01:43:04,VALID,1002.42,VALID,0,INVALID,163.678,VALID,0,VALID,25.0663,VALID,57,VALID,0.214062,
2011-05-26, 01:44:04,VALID,1002.4,VALID,0,INVALID,163.708,VALID,0,VALID,25.0839,VALID,57,VALID,0.139062,
2011-05-26, 01:45:04,VALID,1002.39,VALID,0,INVALID,163.639,VALID,0,VALID,25.1053,VALID,57,VALID,0.0828125,
2011-05-26, 01:46:04,VALID,1002.39,VALID,0,INVALID,163.639,VALID,0.100563,VALID,25.082,VALID,76,VALID,0.160938,
2011-05-26, 01:47:04,VALID,1002.4,VALID,0,INVALID,163.67,VALID,0.100563,VALID,25.1015,VALID,76,VALID,0.171484,
2011-05-26, 01:48:04,VALID,1002.41,VALID,0,INVALID,163.662,VALID,0.100563,VALID,25.1034,VALID,76,VALID,0.0601562,
2011-05-26, 01:49:04,VALID,1002.39,VALID,0,INVALID,163.678,VALID,0,VALID,25.1015,VALID,76,VALID,0.221484,
2011-05-26, 01:50:04,VALID,1002.37,VALID,0,INVALID,163.647,VALID,0.100563,VALID,25.1229,VALID,76,VALID,0.132031,
2011-05-26, 01:51:04,VALID,1002.35,VALID,0,INVALID,163.647,VALID,0,VALID,25.1015,VALID,76,VALID,0,
2011-05-26, 01:52:04,VALID,1002.37,VALID,0,INVALID,163.662,VALID,0,VALID,25.1015,VALID,76,VALID,0.0324219,
2011-05-26, 01:53:04,VALID,1002.37,VALID,0,INVALID,163.639,VALID,0,VALID,25.1229,VALID,76,VALID,0,
2011-05-26, 01:54:04,VALID,1002.34,VALID,0,INVALID,163.655,VALID,0.100563,VALID,25.1015,VALID,76,VALID,0,
2011-05-26, 01:55:04,VALID,1002.35,VALID,0,INVALID,163.647,VALID,0.100563,VALID,25.1442,VALID,76,VALID,0.113281,
2011-05-26, 01:56:04,VALID,1002.31,VALID,0,INVALID,163.632,VALID,0.100563,VALID,25.1229,VALID,76,VALID,0.192969,
2011-05-26, 01:57:04,VALID,1002.34,VALID,0,INVALID,163.678,VALID,0,VALID,25.1229,VALID,76,VALID,0.204688,
2011-05-26, 01:58:04,VALID,1002.29,VALID,0,INVALID,163.632,VALID,0,VALID,25.1229,VALID,76,VALID,0.169922,
2011-05-26, 01:59:04,VALID,1002.31,VALID,0,INVALID,163.67,VALID,0.100563,VALID,25.082,VALID,76,VALID,0.101172,
2011-05-26, 02:00:04,VALID,1002.3,VALID,0,INVALID,163.693,VALID,0,VALID,25.0839,VALID,76,VALID,0.36875,
2011-05-26, 02:01:04,VALID,1002.3,VALID,0,INVALID,163.678,VALID,0,VALID,25.045,VALID,76,VALID,0,
2011-05-26, 02:02:04,VALID,1002.29,VALID,0,INVALID,163.693,VALID,0.100563,VALID,25.0041,VALID,76,VALID,0,
2011-05-26, 02:03:04,VALID,1002.29,VALID,0,INVALID,163.662,VALID,0.100563,VALID,25.006,VALID,76,VALID,0,
2011-05-26, 02:04:04,VALID,1002.31,VALID,0,INVALID,163.708,VALID,0.100563,VALID,25.006,VALID,76,VALID,0.113672,
2011-05-26, 02:05:04,VALID,1002.33,VALID,0,INVALID,163.678,VALID,0,VALID,24.9671,VALID,76,VALID,0.111719,
2011-05-26, 02:06:04,VALID,1002.31,VALID,0,INVALID,163.685,VALID,0,VALID,24.9671,VALID,76,VALID,0.113281,
2011-05-26, 02:07:04,VALID,1002.31,VALID,0,INVALID,163.662,VALID,0,VALID,24.9476,VALID,76,VALID,0,
2011-05-26, 02:08:04,VALID,1002.32,VALID,0,INVALID,163.693,VALID,0,VALID,24.9282,VALID,76,VALID,0,
2011-05-26, 02:09:04,VALID,1002.31,VALID,0,INVALID,163.701,VALID,0.100563,VALID,24.9282,VALID,76,VALID,0,
2011-05-26, 02:10:04,VALID,1002.34,VALID,0,INVALID,163.693,VALID,0.100563,VALID,24.8892,VALID,76,VALID,0,
2011-05-26, 02:11:04,VALID,1002.34,VALID,0,INVALID,163.708,VALID,0,VALID,24.8697,VALID,76,VALID,0,
2011-05-26, 02:12:04,VALID,1002.34,VALID,0,INVALID,163.685,VALID,0.100563,VALID,24.8503,VALID,76,VALID,0,
2011-05-26, 02:13:04,VALID,1002.35,VALID,0,INVALID,163.731,VALID,0,VALID,24.8308,VALID,76,VALID,0,
2011-05-26, 02:14:04,VALID,1002.35,VALID,0,INVALID,163.678,VALID,0,VALID,24.8113,VALID,76,VALID,0.314453,
2011-05-26, 02:15:04,VALID,1002.32,VALID,0,INVALID,163.678,VALID,0.100563,VALID,24.8113,VALID,76,VALID,0.0078125,
2011-05-26, 02:16:04,VALID,1002.31,VALID,0,INVALID,163.716,VALID,0,VALID,24.79,VALID,76,VALID,0.187891,
2011-05-26, 02:17:04,VALID,1002.31,VALID,0,INVALID,163.678,VALID,0,VALID,24.7919,VALID,76,VALID,0,
2011-05-26, 02:18:04,VALID,1002.28,VALID,0,INVALID,163.67,VALID,0,VALID,24.7919,VALID,76,VALID,0,
2011-05-26, 02:19:04,VALID,1002.28,VALID,0,INVALID,163.685,VALID,0,VALID,24.751,VALID,76,VALID,0,
2011-05-26, 02:20:04,VALID,1002.25,VALID,0,INVALID,163.685,VALID,0,VALID,24.7316,VALID,76,VALID,0.0210938,
2011-05-26, 02:21:04,VALID,1002.26,VALID,0,INVALID,163.693,VALID,0,VALID,24.7529,VALID,76,VALID,0,
2011-05-26, 02:22:04,VALID,1002.21,VALID,0,INVALID,163.693,VALID,0,VALID,24.7529,VALID,76,VALID,0,
2011-05-26, 02:23:04,VALID,1002.2,VALID,0,INVALID,163.678,VALID,0,VALID,24.7529,VALID,76,VALID,0,
2011-05-26, 02:24:04,VALID,1002.19,VALID,0,INVALID,163.678,VALID,0.100563,VALID,24.7335,VALID,76,VALID,0,
2011-05-26, 02:25:04,VALID,1002.18,VALID,0,INVALID,163.701,VALID,0.100563,VALID,24.714,VALID,76,VALID,0.00820312,
2011-05-26, 02:26:04,VALID,1002.18,VALID,0,INVALID,163.693,VALID,0.100563,VALID,24.6926,VALID,76,VALID,0.109766,
2011-05-26, 02:27:04,VALID,1002.15,VALID,0,INVALID,163.701,VALID,0,VALID,24.7159,VALID,76,VALID,0.226563,
2011-05-26, 02:28:04,VALID,1002.17,VALID,0,INVALID,163.678,VALID,0,VALID,24.675,VALID,76,VALID,0.219531,
2011-05-26, 02:29:04,VALID,1002.14,VALID,0,INVALID,163.685,VALID,0,VALID,24.6574,VALID,76,VALID,0.197266,
2011-05-26, 02:30:04,VALID,1002.13,VALID,0,INVALID,163.716,VALID,0,VALID,24.6166,VALID,76,VALID,0.327344,
2011-05-26, 02:31:04,VALID,1002.11,VALID,0,INVALID,163.685,VALID,0.100563,VALID,24.5972,VALID,76,VALID,0.178125,
2011-05-26, 02:32:04,VALID,1002.09,VALID,0,INVALID,163.693,VALID,0,VALID,24.5582,VALID,76,VALID,0.326172,
2011-05-26, 02:33:04,VALID,1002.08,VALID,0,INVALID,163.693,VALID,0,VALID,24.5388,VALID,76,VALID,0.194531,
2011-05-26, 02:34:04,VALID,1002.08,VALID,0,INVALID,163.723,VALID,0,VALID,24.5193,VALID,76,VALID,0.248828,
2011-05-26, 02:35:04,VALID,1002.09,VALID,0,INVALID,163.693,VALID,0,VALID,24.5017,VALID,76,VALID,0.19375,
2011-05-26, 02:36:04,VALID,1002.05,VALID,0,INVALID,163.685,VALID,0,VALID,24.4822,VALID,76,VALID,0.213672,
2011-05-26, 02:37:04,VALID,1002.08,VALID,0,INVALID,163.708,VALID,0,VALID,24.4628,VALID,76,VALID,0.179688,
2011-05-26, 02:38:04,VALID,1002.04,VALID,0,INVALID,163.685,VALID,0,VALID,24.422,VALID,76,VALID,0.161719,
2011-05-26, 02:39:04,VALID,1002.03,VALID,0,INVALID,163.731,VALID,0,VALID,24.4025,VALID,76,VALID,0.217578,
2011-05-26, 02:40:04,VALID,1002.01,VALID,0,INVALID,163.716,VALID,0,VALID,24.383,VALID,76,VALID,0.371484,
2011-05-26, 02:41:04,VALID,1002.04,VALID,0,INVALID,163.708,VALID,0,VALID,24.3636,VALID,76,VALID,0.236719,
2011-05-26, 02:42:04,VALID,1002.04,VALID,0,INVALID,163.746,VALID,0,VALID,24.3636,VALID,76,VALID,0,
2011-05-26, 02:43:04,VALID,1002.02,VALID,0,INVALID,163.693,VALID,0,VALID,24.3849,VALID,76,VALID,0,
2011-05-26, 02:44:04,VALID,1002.05,VALID,0,INVALID,163.723,VALID,0,VALID,24.3636,VALID,76,VALID,0,
2011-05-26, 02:45:04,VALID,1002.03,VALID,0,INVALID,163.701,VALID,0,VALID,24.3441,VALID,76,VALID,0,
2011-05-26, 02:46:04,VALID,1002,VALID,0,INVALID,163.746,VALID,0,VALID,24.3441,VALID,76,VALID,0,
2011-05-26, 02:47:04,VALID,1002,VALID,0,INVALID,163.716,VALID,0,VALID,24.3441,VALID,76,VALID,0,
2011-05-26, 02:48:04,VALID,1001.96,VALID,0,INVALID,163.708,VALID,0,VALID,24.3246,VALID,76,VALID,0,
2011-05-26, 02:49:04,VALID,1001.99,VALID,0,INVALID,163.693,VALID,0,VALID,24.3246,VALID,76,VALID,0,
2011-05-26, 02:50:04,VALID,1001.95,VALID,0,INVALID,163.731,VALID,0,VALID,24.3246,VALID,76,VALID,0,
2011-05-26, 02:51:04,VALID,1001.93,VALID,0,INVALID,163.731,VALID,0,VALID,24.3246,VALID,76,VALID,0,
2011-05-26, 02:52:04,VALID,1001.91,VALID,0,INVALID,163.739,VALID,0,VALID,24.3246,VALID,76,VALID,0,
2011-05-26, 02:53:04,VALID,1001.92,VALID,0,INVALID,163.723,VALID,0,VALID,24.2662,VALID,76,VALID,0,
2011-05-26, 02:54:04,VALID,1001.9,VALID,0,INVALID,163.731,VALID,0,VALID,24.2662,VALID,76,VALID,0,
2011-05-26, 02:55:04,VALID,1001.94,VALID,0,INVALID,163.723,VALID,0,VALID,24.2468,VALID,76,VALID,0,
2011-05-26, 02:56:04,VALID,1001.92,VALID,0,INVALID,163.716,VALID,0,VALID,24.2273,VALID,76,VALID,0,
2011-05-26, 02:57:04,VALID,1001.94,VALID,0,INVALID,163.708,VALID,0,VALID,24.2486,VALID,76,VALID,0,
2011-05-26, 02:58:04,VALID,1001.94,VALID,0,INVALID,163.739,VALID,0,VALID,24.2078,VALID,76,VALID,0,
2011-05-26, 02:59:04,VALID,1001.9,VALID,0,INVALID,163.739,VALID,0,VALID,24.1884,VALID,76,VALID,0,
2011-05-26, 03:00:04,VALID,1001.92,VALID,0,INVALID,163.731,VALID,0,VALID,24.2097,VALID,76,VALID,0,
2011-05-26, 03:01:04,VALID,1001.89,VALID,0,INVALID,163.746,VALID,0,VALID,24.1884,VALID,76,VALID,0,
2011-05-26, 03:02:04,VALID,1001.89,VALID,0,INVALID,163.731,VALID,0,VALID,24.1476,VALID,76,VALID,0,
2011-05-26, 03:03:04,VALID,1001.92,VALID,0,INVALID,163.708,VALID,0,VALID,24.13,VALID,76,VALID,0,
2011-05-26, 03:04:04,VALID,1001.94,VALID,0,INVALID,163.739,VALID,0,VALID,24.1105,VALID,76,VALID,0,
2011-05-26, 03:05:04,VALID,1001.91,VALID,0,INVALID,163.746,VALID,0,VALID,24.1336,VALID,76,VALID,0,
2011-05-26, 03:06:04,VALID,1001.92,VALID,0,INVALID,163.746,VALID,0,VALID,24.091,VALID,76,VALID,0,
2011-05-26, 03:07:04,VALID,1001.91,VALID,0,INVALID,163.739,VALID,0,VALID,24.0521,VALID,76,VALID,0,
2011-05-26, 03:08:04,VALID,1001.91,VALID,0,INVALID,163.746,VALID,0,VALID,24.0716,VALID,76,VALID,0,
2011-05-26, 03:09:04,VALID,1001.93,VALID,0,INVALID,163.739,VALID,0,VALID,24.0716,VALID,76,VALID,0,
2011-05-26, 03:10:04,VALID,1001.94,VALID,0,INVALID,163.731,VALID,0,VALID,24.0539,VALID,76,VALID,0.0890625,
2011-05-26, 03:11:04,VALID,1001.96,VALID,0,INVALID,163.739,VALID,0,VALID,24.0539,VALID,76,VALID,0,
2011-05-26, 03:12:04,VALID,1001.94,VALID,0,INVALID,163.739,VALID,0,VALID,24.0132,VALID,76,VALID,0,
2011-05-26, 03:13:04,VALID,1001.95,VALID,0,INVALID,163.746,VALID,0,VALID,24.0132,VALID,76,VALID,0,
2011-05-26, 03:14:04,VALID,1001.99,VALID,0,INVALID,163.731,VALID,0,VALID,24.015,VALID,76,VALID,0,
2011-05-26, 03:15:04,VALID,1001.94,VALID,0,INVALID,163.762,VALID,0,VALID,24.015,VALID,76,VALID,0,
2011-05-26, 03:16:04,VALID,1001.97,VALID,0,INVALID,163.739,VALID,0,VALID,24.015,VALID,76,VALID,0,
2011-05-26, 03:17:04,VALID,1001.98,VALID,0,INVALID,163.723,VALID,0,VALID,24.0345,VALID,76,VALID,0,
2011-05-26, 03:18:04,VALID,1001.99,VALID,0,INVALID,163.739,VALID,0,VALID,24.015,VALID,76,VALID,0,
2011-05-26, 03:19:04,VALID,1001.97,VALID,0,INVALID,163.723,VALID,0,VALID,23.9742,VALID,43,VALID,0,
2011-05-26, 03:20:04,VALID,1001.97,VALID,0,INVALID,163.754,VALID,0,VALID,24.0345,VALID,17,VALID,0,
2011-05-26, 03:21:04,VALID,1001.99,VALID,0,INVALID,163.731,VALID,0,VALID,24.0539,VALID,16,VALID,0,
2011-05-26, 03:22:04,VALID,1001.99,VALID,0,INVALID,163.716,VALID,0,VALID,24.091,VALID,12,VALID,0,
2011-05-26, 03:23:04,VALID,1002.01,VALID,0,INVALID,163.746,VALID,0,VALID,24.0929,VALID,12,VALID,0,
2011-05-26, 03:24:04,VALID,1002.01,VALID,0,INVALID,163.723,VALID,0,VALID,24.0929,VALID,12,VALID,0,
2011-05-26, 03:25:04,VALID,1001.99,VALID,0,INVALID,163.762,VALID,0,VALID,24.0716,VALID,11,VALID,0,
2011-05-26, 03:26:04,VALID,1002,VALID,0,INVALID,163.746,VALID,0,VALID,24.0734,VALID,12,VALID,0,
2011-05-26, 03:27:04,VALID,1002.01,VALID,0,INVALID,163.739,VALID,0,VALID,24.0539,VALID,12,VALID,0,
2011-05-26, 03:28:04,VALID,1001.98,VALID,0,INVALID,163.716,VALID,0,VALID,24.0539,VALID,11,VALID,0,
2011-05-26, 03:29:04,VALID,1001.98,VALID,0,INVALID,163.754,VALID,0,VALID,24.0521,VALID,11,VALID,0,
2011-05-26, 03:30:04,VALID,1001.98,VALID,0,INVALID,163.739,VALID,0,VALID,24.0521,VALID,12,VALID,0,
2011-05-26, 03:31:04,VALID,1001.97,VALID,0,INVALID,163.754,VALID,0,VALID,24.0716,VALID,11,VALID,0,
2011-05-26, 03:32:04,VALID,1001.96,VALID,0,INVALID,163.723,VALID,0,VALID,24.0716,VALID,12,VALID,0,
2011-05-26, 03:33:04,VALID,1001.99,VALID,0,INVALID,163.739,VALID,0,VALID,24.0716,VALID,12,VALID,0,
2011-05-26, 03:34:04,VALID,1001.98,VALID,0,INVALID,163.762,VALID,0.100563,VALID,24.0697,VALID,12,VALID,0,
2011-05-26, 03:35:04,VALID,1001.96,VALID,0,INVALID,163.746,VALID,0.100563,VALID,24.0503,VALID,12,VALID,0,
2011-05-26, 03:36:04,VALID,1001.95,VALID,0,INVALID,163.723,VALID,0,VALID,24.0716,VALID,12,VALID,0,
2011-05-26, 03:37:04,VALID,1001.99,VALID,0,INVALID,163.716,VALID,0,VALID,24.0716,VALID,12,VALID,0,
2011-05-26, 03:38:04,VALID,1001.97,VALID,0,INVALID,163.731,VALID,0,VALID,24.0521,VALID,12,VALID,0,
2011-05-26, 03:39:04,VALID,1001.98,VALID,0,INVALID,163.739,VALID,0,VALID,24.0521,VALID,11,VALID,0,
2011-05-26, 03:40:04,VALID,1001.99,VALID,0,INVALID,163.731,VALID,0,VALID,24.0521,VALID,12,VALID,0,
2011-05-26, 03:41:04,VALID,1002.01,VALID,0,INVALID,163.739,VALID,0,VALID,24.0114,VALID,12,VALID,0,
2011-05-26, 03:42:04,VALID,1002.02,VALID,0,INVALID,163.739,VALID,0,VALID,24.0114,VALID,12,VALID,0,
2011-05-26, 03:43:04,VALID,1002.04,VALID,0,INVALID,163.777,VALID,0,VALID,24.0326,VALID,12,VALID,0,
2011-05-26, 03:44:04,VALID,1002.05,VALID,0,INVALID,163.762,VALID,0,VALID,23.9937,VALID,12,VALID,0,
2011-05-26, 03:45:04,VALID,1002.05,VALID,0,INVALID,163.754,VALID,0,VALID,23.9761,VALID,12,VALID,0,
2011-05-26, 03:46:04,VALID,1002.05,VALID,0,INVALID,163.746,VALID,0,VALID,23.9566,VALID,11,VALID,0,
2011-05-26, 03:47:04,VALID,1002.04,VALID,0,INVALID,163.746,VALID,0,VALID,23.9371,VALID,12,VALID,0,